Showing default

PODSAT, 43229

Orbit data source: Space-Track

PODSAT, 43229 is a payload satellite owned by DARPA (US) that was launched on Tue, 06 Mar 2018 UTC via an FALCON 9 launch vehicle from the Air Force Eastern Test Range (AFETR). Payload-class satellites include a variety of spacecraft equipped with specific instruments for various scientific and technological missions. These include communications satellites like Starlink; space stations such as the ISS; scientific satellites like the Hubble; Earth observation satellites from companies like Planet Labs, Umbra, and HawkEye 360; GPS; miniature CubeSats for education and research; and military/defense satellites.

Loading next visibility...
Identifier
43229, 2018-023B
Orbit
Active
Country
Flag of USUS
Related business
Manufacturer
NovaWurks
Mission
Operational Defense Technology
Bus & Motor
SIMPL, Unknown motor
Mass
~90 kg wet, ~90 kg dry
Launch date (UTC)
2018-03-06 (8 years ago)
Launch vehicle
FALCON 9
Launch site
Air Force Eastern Test Range (AFETR)
Object type
Payload
Rocket body
Debris
Shape & HBR
Box, 0.1 m
Radar Cross Section
0.135 m², Medium (>0.1 m² and < 1m²)

Expand to show TLE details & history
Last TLE update: 2 days ago

TLE from 2 days ago
0 PODSAT
1 43229U 18023B   25309.95017129  .00097981  00000-0  92869-3 0  9998
2 43229  26.8321 256.2257 3684954  12.0147 354.8436  8.17027217174041
Epoch: 2025-11-05T22:48Z
TLE epoch observation values (Epoch: 2025-11-05T22:48:14.799Z)
Latitude
0.00002°
Longitude
-131.25141°
Altitude
235.413 km
Speed
9.071 km/s
True Right ascension
17h 04m 54s
True Declination
0° 00' 00"
Sunlit
Object was in daylight at epoch
Visualization orbit readout
Latitude
Unknown
Longitude
Unknown
Altitude
Unknown
Speed
Unknown
Apparent Right ascension
Unknown
Apparent Declination
Unknown
Sunlit
N/A
Visualization observer readout
Local Sidereal Time
13:14:33
Azimuth
Unknown
Elevation
Unknown
Doppler factor
Unknown
Orbital elements
Apogee altitude
7,877.072 km
Perigee altitude
200.058 km
Semi-major axis
10,416.702 km
Eccentricity
0.3685
Inclination
26.8321°
RAAN
256.2257°
Arg. of periapsis
12.0147°
True anomaly
348.0271°
Mean anomaly
354.8436°
Eccentric anomaly
351.85076°
Mean motion
2.04149 °/min
Orbital period
176.34 mins
BSTAR
0.00092869
Loading maneuver chart data...
Computing Atmospheric mass density...
Loading historical data...
Loading historical data...
Loading historical data...
Loading historical data...
Loading historical data...
Loading historical data...
Loading historical data...
Other satellites on launch #23 in the year 2018 (2018-03-06 UTC)

Documentation

Showing up to 5 results
|